Regional Weather Roundup
Issued by NWS

Home | Current Version | Previous Version | Text Only | Print | Product List | Glossary Off
Versions: 1 2 3 4 5 6 7 8 9 10 11 12 13 14 15 16 17 18 19 20 21 22 23 24 25 26 27 28 29 30 31 32 33 34 35 36 37 38 39 40 41 42 43 44 45 46 47 48 49 50

000
ASUS45 KPSR 051500
RWRAZ

ARIZONA HOURLY REGIONAL WEATHER ROUNDUP
NATIONAL WEATHER SERVICE PHOENIX AZ
800 AM MST SUN JUL 05 2015

NOTE: FAIR INDICATES FEW OR NO CLOUDS BELOW 12,000 FEET WITH NO
SIGNIFICANT WEATHER AND/OR OBSTRUCTIONS TO VISIBILITY.

AZZ001>003-036-051600-
NORTHWEST ARIZONA

CITY           SKY/WX    TMP DP  RH WIND       PRES   REMARKS
KINGMAN        MOSUNNY   87  51  28 E12       30.03S
$$

AZZ004>008-015-016-018-051600-
NORTH CENTRAL ARIZONA

CITY           SKY/WX    TMP DP  RH WIND       PRES   REMARKS
GRAND CANYON   SUNNY     71  52  50 W7        30.28R
WILLIAMS       CLOUDY    70  52  52 W8        30.35S
PRESCOTT       SUNNY     78  54  43 CALM      30.17R
FLAGSTAFF      NOT AVBL
PAYSON         CLOUDY    73  55  53 CALM      30.21R
PAGE           SUNNY     82  49  31 NW5       30.07R
$$

AZZ009>014-017-051600-
NORTHEAST ARIZONA

CITY           SKY/WX    TMP DP  RH WIND       PRES   REMARKS
WINSLOW        NOT AVBL
SAINT JOHNS    PTSUNNY   66  58  75 CALM      30.21R
WINDOW ROCK    CLOUDY    66  57  72 CALM      30.26S
SHOW LOW       CLOUDY    66  54  63 S10       30.27R
$$

AZZ023-051600-
GREATER PHOENIX AREA

CITY           SKY/WX    TMP DP  RH WIND       PRES   REMARKS
PHOENIX        CLOUDY    89  62  40 SW7       29.90R
GLENDALE       PTSUNNY   90  63  40 S7        29.92R
LUKE AFB       MOSUNNY   90  63  40 SW10      29.90R
DEER VALLEY    PTSUNNY   86  59  39 CALM      29.93R
SCOTTSDALE     CLOUDY    88  59  37 VRB3      29.94R
MESA-FALCON    PTSUNNY   88  57  35 SW7       29.93R
MESA-GATEWAY   PTSUNNY   90  59  35 N5        29.95R
CHANDLER       PTSUNNY   90  59  35 N6        29.93R
$$

AZZ027-028-051600-
SOUTHWEST MARICOPA COUNTY AND PINAL COUNTY

CITY           SKY/WX    TMP DP  RH WIND       PRES   REMARKS
CASA GRANDE    CLOUDY    90  59  35 CALM      29.93S
GILA BEND      FAIR      90  61  37 VRB1      29.89R
$$

AZZ503-504-507>509-051600-
SOUTHEAST ARIZONA

CITY           SKY/WX    TMP DP  RH WIND       PRES   REMARKS
TUCSON         CLOUDY    83  64  52 S10       30.05R
DAVIS-MONTHAN  CLOUDY    82  64  54 S7        30.04R
RYAN FIELD     SUNNY     82  64  54 N3        30.03R
NOGALES        CLOUDY    72  60  66 S5        30.14R
SIERRA VISTA   CLOUDY    68  65  90 E5        30.19R
SAFFORD        CLOUDY    79  64  60 NW5       30.04R
$$

AZZ020-021-025-026-031-051600-
SOUTHWEST ARIZONA

CITY           SKY/WX    TMP DP  RH WIND       PRES   REMARKS
YUMA           NOT AVBL
$$

CAZ031-033-041-043-047-048-061-051600-
SOUTHERN CALIFORNIA

CITY           SKY/WX    TMP DP  RH WIND       PRES   REMARKS
DOWNTOWN L.A.  CLOUDY    67  59  75 CALM      29.97R
L.A. AIRPORT   CLOUDY    64  60  87 W8        29.99R
SAN DIEGO      CLOUDY    67  57  70 NW6       29.99R
BURBANK        CLOUDY    65  58  78 CALM      29.98R HAZE
ONTARIO        CLOUDY    65  58  78 CALM      29.98R HAZE
RIVERSIDE      CLOUDY    65  59  81 CALM      29.98R HAZE
PALM SPRINGS   SUNNY     86  58  38 E3        29.86R
EL CENTRO NAS  SUNNY     85  70  60 CALM      29.83R
IMPERIAL       SUNNY     85  72  65 SE6       29.81R
BLYTHE         SUNNY     90  63  40 S10       29.84R
$$

NVZ020-UTZ003-051600-
SOUTHERN NEVADA-UTAH

CITY           SKY/WX    TMP DP  RH WIND       PRES   REMARKS
LAS VEGAS      NOT AVBL
SALT LAKE CITY CLOUDY    75  62  64 N3        30.03R
$$

NMZ009-TXZ055-051600-
NEW MEXICO-WEST TEXAS

CITY           SKY/WX    TMP DP  RH WIND       PRES   REMARKS
ALBUQUERQUE    PTSUNNY   73  57  57 SW6       30.16S
EL PASO        MOSUNNY   78  64  61 W5        30.08R
$$


........................KEY........................
SKY/WX - SKY CONDITION/WEATHER
TMP    - TEMPERATURE IN FAHRENHEIT
DP     - DEW POINT IN FAHRENHEIT
RH     - RELATIVE HUMIDITY IN PERCENT
WIND   - DIRECTION AND SPEED IN MILES PER HOUR (MPH)
VRB    - VARIABLE WIND DIRECTION
PRES   - MEAN SEA LEVEL PRESSURE IN INCHES OF MERCURY
         F - FALLING PRESSURE   R - RISING PRESSURE
         S - STEADY PRESSURE
VSB    - VISIBILITY IN MILES
HX     - HEAT INDEX IN FAHRENHEIT
WCI    - WIND CHILL INDEX IN FAHRENHEIT
TC     - TEMPERATURE IN CELSIUS WHICH IS ALSO KNOWN AS
         TEMPERATURE IN CENTIGRADE
AFB    - AIR FORCE BASE
         LUKE AFB IS LUKE AIR FORCE BASE
         DAVIS-MONTHAN IS DAVIS-MONTHAN AIR FORCE BASE
NAS    - NAVAL AIR STATION
         EL CENTRO NAS IS EL CENTRO NAVAL AIR STATION
N/A    - NOT AVAILABLE




USA.gov is the U.S. government's official web portal to all federal, state and local government web resources and services.